[[{"header":{"parameterUnit":"m.s-1","parameterCategory":1,"la1":30.2991,"la2":30.254,"lo1":-89.0895,"lo2":-89.0444,"dy":0.0017,"dx":0.0017,"nx":28,"ny":28,"refTime":"2023-09-02T03:00:00:Z","depth":0,"parameterNumber":2,"parameterNumberName":"U-component_of_WINDS"},"data":[0,0,0,0,0,0,0,0,0,0,0,0,0,0,0,0,0,0,0,0,0,0,0,0,0,0,0,0,0,0,0,0,0,0,0,0,0,0,0,0,0,0,0,0,0,0,0,0,0,0,0,0,0,0,0,0,0,0,-2.6072,-2.6073,0,-2.6171,-2.6172,-2.6173,-2.6153,-2.6152,-2.615,-2.6148,-2.6253,-2.6257,-2.6261,0,0,0,0,0,0,0,0,0,0,0,0,0,-2.5867,-2.5871,-2.6071,-2.6073,-2.6074,-2.6171,-2.6172,-2.6174,-2.6154,-2.6152,-2.6149,-2.6147,-2.6251,-2.6256,-2.6262,0,0,0,0,0,0,0,0,0,0,0,0,0,-2.596,-2.5872,-2.6071,-2.6076,-2.6077,-2.6171,-2.6172,-2.6174,-2.6154,-2.6152,-2.6149,-2.6146,-2.6249,-2.6256,-2.6263,-2.6359,0,0,-2.6283,-2.6286,0,0,0,0,0,0,0,0,-2.5955,-2.5968,-2.6074,-2.6076,-2.6077,-2.6147,-2.6138,-2.6236,-2.6155,-2.6125,-2.6148,-2.6145,-2.622,-2.6229,-2.6254,-2.6363,-2.6368,-2.6284,-2.6288,-2.6291,-2.6293,0,0,0,0,0,0,0,-2.5949,-2.5964,-2.6111,-2.6075,-2.6078,-2.6074,-2.6084,-2.6157,-2.6187,-2.6127,-2.6126,-2.6138,-2.622,-2.6247,-2.6256,-2.637,-2.6284,-2.6289,-2.6294,-2.6296,-2.6565,-2.6568,0,0,0,0,0,0,-2.594,-2.5958,-2.6108,-2.6114,-2.6008,-2.608,-2.6091,-2.6127,-2.6186,-2.6192,-2.614,-2.6137,-2.6237,-2.6248,-2.6259,-2.6377,-2.6291,-2.6297,-2.6301,-2.6562,-2.6566,-2.6569,0,0,0,0,0,0,-2.5936,-2.5954,-2.6104,-2.6036,-2.6055,-2.6086,-2.6127,-2.6131,-2.6158,-2.6195,-2.6201,-2.6162,-2.6235,-2.625,-2.6334,-2.638,-2.63,-2.6306,-2.6558,-2.6563,-2.6567,-2.6612,0,0,0,0,0,0,-2.593,-2.5952,-2.5988,-2.6037,-2.6058,-2.6176,-2.613,-2.6135,-2.6169,-2.6165,-2.6217,-2.6223,-2.6234,-2.6324,-2.6341,-2.6388,-2.6311,-2.6554,-2.656,-2.6566,-2.6607,-2.6618,-2.6627,0,0,0,0,0,-2.5923,-2.5997,-2.599,-2.6009,-2.6104,-2.6179,-2.6191,-2.6201,-2.6173,-2.621,-2.6234,-2.6222,-2.6372,-2.6333,-2.6352,-2.6402,-2.6551,-2.6559,-2.6565,-2.6602,-2.6616,-2.6627,0,0,0,0,0,0,-2.5954,-2.6004,-2.5997,-2.6089,-2.613,-2.6175,-2.6222,-2.6215,-2.6266,-2.626,-2.6272,-2.6284,-2.637,-2.6394,-2.6349,-2.6498,-2.6458,-2.6469,-2.648,-2.6493,-2.6503,-2.6496,-2.6317,0,0,0,0,0,-2.5972,-2.6028,-2.6068,-2.6145,-2.6166,-2.6191,-2.6224,-2.6228,-2.6271,-2.6289,-2.6319,-2.6363,-2.642,-2.6457,-2.6512,-2.661,-2.6622,-2.6653,-2.6663,-2.6672,-2.6682,-2.6737,-2.6752,-2.6592,-2.6592,-2.6592,0,0,-2.6009,-2.6043,-2.6077,-2.6153,-2.6185,-2.6244,-2.6206,-2.6269,-2.6313,-2.6299,-2.638,-2.6404,-2.6454,-2.6545,-2.6587,-2.6568,-2.6728,-2.6681,-2.6687,-2.6692,-2.6745,-2.6761,-2.6774,-2.6597,-2.6596,-2.6595,0,0,-2.6106,-2.6137,-2.6205,-2.6239,-2.6288,-2.6304,-2.632,-2.6367,-2.6383,-2.6464,-2.6455,-2.6508,-2.6606,-2.6642,-2.6673,-2.6785,-2.6776,-2.6802,-2.6856,-2.691,-2.6922,-2.6934,-2.6975,-2.699,-2.6812,-2.6812,-2.6812,0,-2.6147,-2.6234,-2.6242,-2.6307,-2.6341,-2.6329,-2.64,-2.6432,-2.6496,-2.6521,-2.6498,-2.6621,-2.6654,-2.6754,-2.6782,-2.6807,-2.6827,-2.6797,-2.692,-2.6931,-2.6942,-2.6982,-2.6997,-2.6815,-2.6814,-2.6814,-2.6814,0,-2.6281,-2.6342,-2.6392,-2.6454,-2.6493,-2.6561,-2.658,-2.6619,-2.662,-2.6639,-2.6723,-2.6761,-2.6824,-2.6848,-2.685,-2.695,-2.6936,-2.6917,-2.6877,-2.696,-2.6998,-2.7013,-2.6819,-2.6818,-2.6817,-2.6816,0,0,-2.6402,-2.6468,-2.6486,-2.6515,-2.6569,-2.6617,-2.6684,-2.6744,-2.6778,-2.6823,-2.6881,-2.6964,-2.6947,-2.6982,-2.6988,-2.7034,-2.7123,-2.7009,-2.7011,-2.703,-2.7237,-2.7253,-2.727,-2.7116,-2.7119,-2.7122,-2.7233,0,-2.6506,-2.6623,-2.6633,-2.674,-2.6797,-2.6787,-2.6846,-2.6886,-2.6905,-2.6957,-2.6979,-2.7038,-2.7009,-2.7031,-2.7077,-2.7102,-2.7165,-2.7094,-2.7172,-2.7175,-2.7161,-2.7289,-2.7306,-2.741,-2.7248,-2.7251,-2.7252,0,-2.6643,-2.6692,-2.6804,-2.685,-2.6875,-2.6927,-2.6984,-2.7033,-2.7079,-2.709,-2.713,-2.7129,-2.7199,-2.7156,-2.7254,-2.7206,-2.7238,-2.7256,-2.726,-2.7269,-2.7219,-2.7303,-2.7443,-2.7459,-2.7275,-2.7273,-2.7272,0,-2.6721,-2.6815,-2.6895,-2.6919,-2.6975,-2.7013,-2.7038,-2.7081,-2.7117,-2.7167,-2.7191,-2.7249,-2.7281,-2.7326,-2.7342,-2.7308,-2.744,-2.7397,-2.7453,-2.7452,-2.7482,-2.748,-2.763,-2.75,-2.75,-2.75,-2.7499,0,-2.6837,-2.6907,-2.6931,-2.698,-2.7058,-2.7069,-2.7146,-2.7169,-2.7207,-2.7262,-2.7257,-2.7308,-2.7325,-2.738,-2.7392,-2.7473,-2.7487,-2.7499,-2.7502,-2.75,-2.7499,-2.7522,-2.7516,-2.7504,-2.7503,-2.7502,-2.7501,0,-2.6939,-2.6958,-2.7044,-2.709,-2.7103,-2.7159,-2.7198,-2.7246,-2.7265,-2.7334,-2.735,-2.738,-2.7444,-2.7464,-2.7541,-2.755,-2.7644,-2.764,-2.7629,-2.763,-2.7684,-2.7679,-2.7856,-2.788,-2.7733,-2.7735,-2.7736,0,-2.7012,-2.7065,-2.7117,-2.7152,-2.7179,-2.7237,-2.7273,-2.7286,-2.7325,-2.7381,-2.7423,-2.7486,-2.7538,-2.7641,-2.767,-2.7729,-2.7727,-2.7785,-2.7737,-2.7734,-2.773,-2.7728,-2.7734,-2.7795,-2.7796,-2.7798,-2.7799,0,-2.7141,-2.7147,-2.72,-2.7257,-2.7301,-2.7347,-2.7391,-2.742,-2.744,-2.7484,-2.7549,-2.7589,-2.7668,-2.7731,-2.7792,-2.7819,-2.7813,-2.7813,-2.783,-2.7829,-2.7821,-2.7828,-2.7655,-2.781,-2.7809,-2.7808,-2.7807,-2.7807,-2.7231,-2.7279,-2.7322,-2.7382,-2.7416,-2.7457,-2.7505,-2.7529,-2.7584,-2.7648,-2.7653,-2.7724,-2.7769,-2.785,-2.788,-2.7937,-2.792,-2.7943,-2.795,-2.7955,-2.7961,-2.7811,-2.7948,-2.7947,-2.7947,-2.7947,-2.7947,0,-2.7361,-2.7389,-2.7443,-2.7505,-2.7552,-2.754,-2.7589,-2.7629,-2.7692,-2.7734,-2.7784,-2.786,-2.7922,-2.7956,-2.8018,-2.8057,-2.8056,-2.8073,-2.8071,-2.8077,-2.7971,-2.7952,-2.8073,-2.8073,-2.8072,-2.8072,-2.8072,-2.8072,-2.7434,-2.7514,-2.7526,-2.7623,-2.7651,-2.772,-2.7748,-2.7787,-2.7821,-2.7905,-2.7956,-2.7977,-2.8017,-2.8082,-2.8139,-2.8147,-2.8171,-2.819,-2.8197,-2.8097,-2.8085,-2.8072,-2.8054,-2.8195,-2.8195,-2.8299,-2.83,-2.83]},{"header":{"parameterUnit":"m.s-1","parameterCategory":1,"la1":30.2991,"la2":30.254,"lo1":-89.0895,"lo2":-89.0444,"dy":0.0017,"dx":0.0017,"nx":28,"ny":28,"refTime":"2023-09-02T03:00:00:Z","depth":0,"parameterNumber":3,"parameterNumberName":"V-component_of_WINDS"},"data":[0,0,0,0,0,0,0,0,0,0,0,0,0,0,0,0,0,0,0,0,0,0,0,0,0,0,0,0,0,0,0,0,0,0,0,0,0,0,0,0,0,0,0,0,0,0,0,0,0,0,0,0,0,0,0,0,0,0,-2.6817,-2.6818,0,-2.6856,-2.6856,-2.6857,-2.6828,-2.6827,-2.6826,-2.6825,-2.6861,-2.6863,-2.6865,0,0,0,0,0,0,0,0,0,0,0,0,0,-2.6717,-2.6719,-2.6817,-2.6818,-2.6818,-2.6856,-2.6856,-2.6857,-2.6828,-2.6827,-2.6825,-2.6824,-2.686,-2.6863,-2.6865,0,0,0,0,0,0,0,0,0,0,0,0,0,-2.6759,-2.672,-2.6817,-2.6809,-2.6809,-2.6856,-2.6856,-2.6857,-2.6829,-2.6827,-2.6825,-2.6823,-2.6859,-2.6863,-2.6866,-2.6922,0,0,-2.6875,-2.6877,0,0,0,0,0,0,0,0,-2.6756,-2.6762,-2.681,-2.681,-2.6809,-2.6835,-2.6834,-2.6879,-2.6829,-2.6821,-2.6825,-2.6822,-2.6854,-2.6857,-2.6868,-2.6924,-2.6926,-2.6876,-2.6878,-2.6879,-2.688,0,0,0,0,0,0,0,-2.6753,-2.676,-2.6832,-2.681,-2.681,-2.6802,-2.6806,-2.6842,-2.6847,-2.6822,-2.682,-2.6825,-2.6853,-2.6865,-2.6869,-2.6926,-2.6876,-2.6878,-2.688,-2.6882,-2.703,-2.7032,0,0,0,0,0,0,-2.6752,-2.6758,-2.6831,-2.6834,-2.6778,-2.6806,-2.681,-2.6829,-2.6847,-2.6848,-2.6826,-2.6823,-2.6861,-2.6865,-2.687,-2.6938,-2.6879,-2.6882,-2.6884,-2.7028,-2.703,-2.7032,0,0,0,0,0,0,-2.675,-2.6759,-2.683,-2.6795,-2.6804,-2.6809,-2.6831,-2.6831,-2.6843,-2.685,-2.6851,-2.6838,-2.686,-2.6866,-2.691,-2.6939,-2.6883,-2.6886,-2.7025,-2.7029,-2.7031,-2.7074,0,0,0,0,0,0,-2.6747,-2.6758,-2.678,-2.6796,-2.6806,-2.687,-2.6833,-2.6833,-2.6849,-2.6845,-2.6861,-2.6862,-2.6859,-2.6905,-2.6913,-2.6942,-2.6889,-2.7023,-2.7027,-2.703,-2.707,-2.7078,-2.7085,0,0,0,0,0,-2.6743,-2.679,-2.6782,-2.679,-2.6834,-2.6871,-2.6877,-2.6872,-2.6851,-2.6873,-2.6878,-2.6862,-2.6934,-2.691,-2.6918,-2.6949,-2.7021,-2.7026,-2.703,-2.7067,-2.7076,-2.7085,0,0,0,0,0,0,-2.6776,-2.6792,-2.6783,-2.6836,-2.6853,-2.6867,-2.6894,-2.6883,-2.6905,-2.6901,-2.6894,-2.6897,-2.6944,-2.6951,-2.6923,-2.7005,-2.6974,-2.6981,-2.6999,-2.7008,-2.7016,-2.7013,-2.6891,0,0,0,0,0,-2.679,-2.682,-2.6831,-2.6877,-2.6886,-2.6889,-2.6905,-2.69,-2.6917,-2.6923,-2.6931,-2.6947,-2.6974,-2.6991,-2.7016,-2.707,-2.7074,-2.7096,-2.7103,-2.7109,-2.7115,-2.7145,-2.7155,-2.7047,-2.7047,-2.7047,0,0,-2.6818,-2.683,-2.685,-2.6884,-2.6897,-2.6927,-2.6895,-2.6929,-2.6951,-2.6928,-2.6971,-2.6977,-2.6994,-2.7044,-2.7066,-2.7051,-2.7145,-2.7115,-2.712,-2.7123,-2.715,-2.7161,-2.717,-2.7051,-2.705,-2.705,0,0,-2.6885,-2.6898,-2.6937,-2.6951,-2.697,-2.6972,-2.6981,-2.6997,-2.7,-2.7043,-2.7027,-2.7052,-2.7098,-2.7111,-2.7124,-2.7196,-2.7182,-2.7204,-2.7243,-2.7272,-2.7281,-2.7288,-2.7314,-2.7324,-2.7209,-2.7209,-2.721,0,-2.6918,-2.6964,-2.6959,-2.6994,-2.701,-2.6991,-2.7031,-2.7044,-2.707,-2.7081,-2.7064,-2.7121,-2.7131,-2.7184,-2.7201,-2.7212,-2.7222,-2.7202,-2.728,-2.7287,-2.7294,-2.7319,-2.7329,-2.7212,-2.7212,-2.7211,-2.7211,0,-2.7003,-2.7035,-2.7065,-2.7092,-2.7111,-2.7148,-2.7148,-2.7167,-2.7161,-2.7164,-2.7207,-2.7219,-2.7245,-2.7257,-2.7251,-2.7309,-2.7299,-2.7281,-2.725,-2.7307,-2.733,-2.734,-2.7216,-2.7215,-2.7214,-2.7213,0,0,-2.7093,-2.7117,-2.7128,-2.714,-2.716,-2.7184,-2.722,-2.7247,-2.7264,-2.7282,-2.7312,-2.7351,-2.7335,-2.7349,-2.7344,-2.7369,-2.7426,-2.7348,-2.7348,-2.7362,-2.7491,-2.7505,-2.7516,-2.7416,-2.7418,-2.7419,-2.749,0,-2.7161,-2.7226,-2.7222,-2.7282,-2.7312,-2.7294,-2.7326,-2.7341,-2.7344,-2.7369,-2.7372,-2.7401,-2.7376,-2.7385,-2.7409,-2.7414,-2.7452,-2.7408,-2.7444,-2.7445,-2.7441,-2.7528,-2.7543,-2.7609,-2.7499,-2.75,-2.7501,0,-2.725,-2.7273,-2.7336,-2.7352,-2.7364,-2.7393,-2.7418,-2.7442,-2.7458,-2.7459,-2.7475,-2.7466,-2.7501,-2.7469,-2.7518,-2.7489,-2.7503,-2.7507,-2.7509,-2.7513,-2.7477,-2.7535,-2.763,-2.764,-2.7515,-2.7514,-2.7513,0,-2.731,-2.7356,-2.74,-2.7411,-2.743,-2.7451,-2.746,-2.7474,-2.7491,-2.7512,-2.7523,-2.7547,-2.7561,-2.7579,-2.7576,-2.7553,-2.7626,-2.7594,-2.7628,-2.7628,-2.7645,-2.7644,-2.7744,-2.7652,-2.7652,-2.7652,-2.7652,0,-2.7388,-2.7427,-2.7427,-2.7455,-2.7498,-2.7493,-2.7536,-2.7542,-2.7556,-2.7583,-2.7569,-2.7595,-2.7589,-2.7614,-2.7612,-2.7653,-2.7659,-2.766,-2.7659,-2.7662,-2.7662,-2.7671,-2.7667,-2.7655,-2.7654,-2.7654,-2.7653,0,-2.7462,-2.7464,-2.7511,-2.7526,-2.753,-2.7562,-2.7574,-2.7599,-2.7601,-2.7636,-2.7644,-2.7647,-2.7677,-2.7675,-2.7708,-2.7706,-2.7757,-2.775,-2.7752,-2.7751,-2.7785,-2.7782,-2.7896,-2.7911,-2.7809,-2.781,-2.7811,0,-2.7512,-2.7542,-2.756,-2.7578,-2.7589,-2.7618,-2.7635,-2.7631,-2.7649,-2.767,-2.7693,-2.7721,-2.7743,-2.779,-2.7795,-2.782,-2.7814,-2.7852,-2.7818,-2.782,-2.7816,-2.7814,-2.7818,-2.7859,-2.7861,-2.7861,-2.7862,0,-2.76,-2.76,-2.7626,-2.7652,-2.7673,-2.7694,-2.7712,-2.7727,-2.7725,-2.7746,-2.7776,-2.7794,-2.7827,-2.7856,-2.7879,-2.7887,-2.7875,-2.7873,-2.7882,-2.7886,-2.7886,-2.7887,-2.7771,-2.7871,-2.787,-2.7869,-2.7869,-2.7868,-2.7665,-2.7691,-2.7708,-2.7737,-2.7751,-2.7769,-2.7793,-2.7799,-2.7825,-2.7853,-2.7848,-2.7882,-2.7897,-2.7928,-2.7939,-2.7964,-2.7951,-2.7964,-2.7968,-2.7971,-2.7976,-2.7881,-2.7969,-2.7968,-2.7968,-2.7968,-2.7968,0,-2.7753,-2.7763,-2.779,-2.7817,-2.784,-2.7827,-2.7846,-2.7866,-2.7897,-2.7913,-2.7935,-2.797,-2.7997,-2.8004,-2.803,-2.8049,-2.8044,-2.8056,-2.8055,-2.8057,-2.7986,-2.7976,-2.806,-2.806,-2.806,-2.806,-2.806,-2.806,-2.7802,-2.7846,-2.7847,-2.7897,-2.7907,-2.7941,-2.7954,-2.797,-2.7982,-2.8022,-2.8045,-2.805,-2.8062,-2.8089,-2.8113,-2.8114,-2.8124,-2.8139,-2.8138,-2.8071,-2.8062,-2.8053,-2.8044,-2.8141,-2.8141,-2.8207,-2.8208,-2.8209]}]]